Regional Weather Roundup
Issued by NWS Charleston, SC

Current Version | Previous Version | Graphics & Text | Print | Product List | Glossary On
Versions: 1 2 3 4 5 6 7 8 9 10 11 12 13 14 15 16 17 18 19 20 21 22 23 24 25 26 27 28 29 30 31 32 33 34 35 36 37 38 39 40 41 42 43 44 45 46 47 48 49 50
000
ASUS42 KCHS 241227
RWRCHS

REGIONAL WEATHER ROUNDUP
NATIONAL WEATHER SERVICE CHARLESTON SC
800 AM EDT MON APR 24 2017

NOTE: "FAIR" INDICATES FEW OR NO CLOUDS BELOW 12,000 FEET WITH NO
SIGNIFICANT WEATHER AND/OR OBSTRUCTIONS TO VISIBILITY.

NOT ALL STATIONS ARE QUALITY CONTROLLED. USE DATA WITH CAUTION...
ESPECIALLY DEWPOINT OBSERVATIONS.

SCZ027-030-031-034>040-042>050-241300-
...SOUTHEAST SOUTH CAROLINA...

CITY           SKY/WX    TMP DP  RH WIND       PRES   REMARKS
N CHARLESTON   HVY RAIN  68  66  93 S14G26    29.68S VSB 3/4
6HR MIN TEMP:  69; 6HR MAX TEMP:  74; 6HR PCP:  0.37;

WATERFRONT PRK   N/A     69  69 100 S17       29.66F
JOHNS ISLAND   TSTM      70  70 100 S14G21    29.68F
PINOPOLIS        N/A     66  64  94 NE10      29.61S
MONCKS CORNER  TSTM      66  64  94 E9        29.70S
SUMMERVILLE    TSTM      68  68 100 CALM      29.69S
BEAUFORT MCAS  PTSUNNY   71  70  96 W3        29.67S
6HR MIN TEMP:  70; 6HR MAX TEMP:  74; 6HR PCP:  0.01;

BEAUFORT ARPT  FAIR      72  66  83 SW6       29.67R
HILTON HEAD IS MOSUNNY   72  70  94 SW8       29.67F
WALTERBORO     CLOUDY    64  64 100 CALM      29.68F
ALLENDALE      CLOUDY    64  64 100 NW6       29.68R FOG

...SOUTHERN MIDLANDS AND PEE DEE...

CITY           SKY/WX    TMP DP  RH WIND       PRES   REMARKS
GEORGETOWN     CLOUDY    68  68 100 SE3       29.74R
KINGSTREE      TSTM      59  59 100 NE7       29.73F
ORANGEBURG     LGT RAIN  62  61  96 E7        29.72R
6HR MIN TEMP:  62; 6HR MAX TEMP:  67; 6HR PCP:  1.15;

BARNWELL       CLOUDY    63  63 100 N9        29.70R
AIKEN          CLOUDY    55  55 100 N8        29.76R FOG
MANNING        CLOUDY    59  59 100 NE10G17   29.72F
COLUMBIA       CLOUDY    61  59  93 N6        29.72S
6HR MIN TEMP:  59; 6HR MAX TEMP:  61; 6HR PCP:  0.72;

SUMTER         LGT RAIN  61  59  94 NE13      29.72R
6HR MIN TEMP:  61; 6HR MAX TEMP:  62; 6HR PCP:  1.39;

FLORENCE       CLOUDY    58  58 100 NE14      29.77S
6HR MIN TEMP:  58; 6HR MAX TEMP:  60; 6HR PCP:  0.42;

MYRTLE BEACH   PTSUNNY   66  64  94 NW6       29.76R
N MYRTLE BEACH CLOUDY    67  66  97 NE6       29.75R
6HR MIN TEMP:  63; 6HR MAX TEMP:  70; 6HR PCP:  0.47;


$$

GAZ063-065-086>088-099>101-113>116-118-119-134>141-150-241300-
...SOUTHEAST GEORGIA...

CITY           SKY/WX    TMP DP  RH WIND       PRES   REMARKS
SAVANNAH ARPT  NOT AVBL
HUNTER AAF     MOSUNNY   69  69 100 SW3       29.65S
6HR MIN TEMP:  68; 6HR MAX TEMP:  73;

FORT STEWART   CLOUDY    66  63  88 W12       29.68R
6HR MIN TEMP:  65; 6HR MAX TEMP:  69;

STATESBORO     CLOUDY    67  67 100 W7        29.68S
SYLVANIA       CLOUDY    66  66 100 NE6       29.69R FOG
CLAXTON        CLOUDY   N/A N/A N/A SW9       29.70R

...CSRA...CENTRAL AND FAR SOUTHEAST GEORGIA...

CITY           SKY/WX    TMP DP  RH WIND       PRES   REMARKS
THOMSON        LGT RAIN  54  52  95 NE7       29.78F
AUGUSTA-BUSH   CLOUDY    60  57  89 NE8       29.69F
6HR MIN TEMP:  59; 6HR MAX TEMP:  63; 6HR PCP:  0.08;

AUGUSTA-DANIEL CLOUDY    58  54  86 N12       29.71F
SWAINSBORO     DRIZZLE   61  61 100 N5        29.71S
VIDALIA        CLOUDY    63  61  94 W5        29.71S
EASTMAN        CLOUDY    61  61 100 NW3       29.75R
HAZLEHURST     CLOUDY    60  60 100 CALM      29.72R
ALMA           CLOUDY    60  60 100 W6        29.72R
6HR MIN TEMP:  60; 6HR MAX TEMP:  69; 6HR PCP:  0.11;

WAYCROSS       SUNNY     64  62  91 NW6       29.72F
JESUP          CLOUDY    64  59  82 W6        29.72S
BAXLEY         CLOUDY    61  61 100 W6        29.72R
BRUNSWICK      CLOUDY    68  64  88 W10       29.72R
SAINT SIMONS   CLOUDY    68  64  87 W12       29.70R
6HR MIN TEMP:  69; 6HR MAX TEMP:  74;


$$

SCZ027-028-034-036>038-045-046-048>050-GAZ119-141-241300-
...LAKE AND SUPPLEMENTAL COASTAL OBSERVATIONS...

STATION/POSITION TIME  TEMP    WIND        PRES    WAVE   SWELL
                       AIR SEA DIR/SP/G            HT/PER HT/PER/DIR
                 (UTC) (F)     (DEG/KT/KT) (MB)    (FT/S) (FT/S/D)
WINYAH BAY       1130   72     150/ 13     1006.0S
LAKE MURRAY      1150   57     360/  2/ 11 1006.8S
ACE BASIN NERRS  1130   73     180/  1     1005.0R
FORT PULASKI     1200   71 74  240/  6/ 10 1005.2
SAPELO ISLAND    1145   70     230/ 10     1005.0S

$$

ANZ835-935-AMZ111-154-330-350-352-354-370-450-454-472-241300-
...C-MAN AND BUOY OBSERVATIONS...

STATION/POSITION TIME  TEMP    WIND        PRES    WAVE   SWELL
                       AIR SEA DIR/SP/G            HT/PER HT/PER/DIR
                 (UTC) (F)     (DEG/KT/KT) (MB)    (FT/S) (FT/S/D)
BUOY 41004       1200   74 74  150/ 21/ 25 1005.8
BUOY 41008       1150   72 72  210/ 12/ 16 1004.9R   4/ 6   3/130/ 6
FOLLY BEACH CMAN 1200   70     190/  8/ 10 1005.6F
CAPERS NEARSHORE 1208   75 72  160/ 17/ 23 1004.8F
FRIPP NEARSHORE  1208   72 72  240/ 12/ 16 1004.5F


STATION/POSITION TIME  TEMP    WIND        PRES    WAVE   SWELL
                       AIR SEA DIR/SP/G            HT/PER HT/PER/DIR
                 (UTC) (F)     (DEG/KT/KT) (MB)    (FT/S) (FT/S/D)
5E ST. MARYS GA  1200      73                N/A     3/ 5   2/ 90/12
FRYING PAN BUOY  1210   69 75  130/ 23/ 29 1008.3
BUOY 41025       1150   77 78  150/ 17/ 21 1011.4S   8/11   7/ 60/11
CAPE LOOKOUT NC  1200   72     140/ 13/ 14 1010.0S
BUOY 41002       1150   72 75  130/ 25/ 31 1010.2S   7/ 7   2/ 60/11
BUOY 41010       1210   75 78  170/  2/  4 1006.0
ST AUGUSTINE FL  1200   71 74  240/  6/  7 1007.3R


$$




USA.gov is the U.S. government's official web portal to all federal, state and local government web resources and services.